This is the latest recevied weather packets stored in our database for station/object KJ4EWA. If no packets are shown the sender has not sent any weather packets the latest 10 day(s).
| Time | Temp. | Humidity | Pressure | Rain* | Wind** | Luminosity | Snow |
|---|---|---|---|---|---|---|---|
| 1777504241 | 25° C | 94% | 1015.3 hPa | 0 mm | - | 5 W/m² | - |
| 1777503936 | 25° C | 93% | 1015.2 hPa | 0 mm | - | 6 W/m² | - |
| 1777503633 | 25° C | 93% | 1015.5 hPa | 0 mm | - | 9 W/m² | - |
| 1777503330 | 25° C | 92% | 1015.4 hPa | 0 mm | - | 9 W/m² | - |
| 1777503026 | 25° C | 92% | 1015.4 hPa | 0 mm | - | 10 W/m² | - |
| 1777502724 | 25.56° C | 92% | 1015.1 hPa | 0 mm | - | 12 W/m² | - |
| 1777502420 | 25.56° C | 92% | 1015 hPa | 0 mm | - | 15 W/m² | - |
| 1777502117 | 25.56° C | 91% | 1014.8 hPa | 0 mm | - | 21 W/m² | - |
| 1777501815 | 25.56° C | 92% | 1014.5 hPa | 0 mm | - | 24 W/m² | - |
| 1777501512 | 25.56° C | 92% | 1014.2 hPa | 0 mm | - | 28 W/m² | - |
| 1777501209 | 25.56° C | 92% | 1014.4 hPa | 0 mm | - | 32 W/m² | - |
| 1777500907 | 25.56° C | 92% | 1014.2 hPa | 0 mm | - | 35 W/m² | - |
| 1777500603 | 25.56° C | 92% | 1014.1 hPa | 0 mm | - | 43 W/m² | - |
| 1777500300 | 25.56° C | 92% | 1014.3 hPa | 0 mm | - | 49 W/m² | - |
| 1777499997 | 26.11° C | 91% | 1014.3 hPa | 0 mm | - | 59 W/m² | - |
| 1777499693 | 26.11° C | 91% | 1014.3 hPa | 0 mm | - | 65 W/m² | - |
| 1777499390 | 26.11° C | 90% | 1014.4 hPa | 0 mm | - | 66 W/m² | - |
| 1777499089 | 26.11° C | 90% | 1014.4 hPa | 0 mm | - | 70 W/m² | - |
| 1777498785 | 26.11° C | 90% | 1014.7 hPa | 0 mm | - | 88 W/m² | - |
| 1777498481 | 26.11° C | 90% | 1014.6 hPa | 0 mm | - | 94 W/m² | - |
| 1777498178 | 26.11° C | 89% | 1015 hPa | 0 mm | - | 105 W/m² | - |
| 1777497875 | 26.67° C | 90% | 1014.8 hPa | 0 mm | - | 114 W/m² | - |
| 1777497571 | 26.11° C | 90% | 1014.7 hPa | 0 mm | - | 103 W/m² | - |
| 1777497268 | 26.67° C | 89% | 1015 hPa | 0 mm | - | 124 W/m² | - |
| 1777496964 | 26.67° C | 89% | 1014.6 hPa | 0 mm | - | 141 W/m² | - |
* Rain latest hour (hover to see other rain measurements)
** Current wind speed in m/s (hover to see current wind gust speed)